• Processing (Info)

  • MPEC 2019-M76 : 2019 MW

    The following Minor Planet Electronic Circular may be linked-to from your own Web pages, but must not otherwise be redistributed electronically.

    A form allowing access to any MPEC is at the bottom of this page.


    Read MPEC 2019-M75 Read MPEC 2019-M77


    M.P.E.C. 2019-M76                                Issued 2019 June 26, 15:40 UT  
    
         The Minor Planet Electronic Circulars contain information on unusual
             minor planets and routine data on comets.  They are published
        on behalf of Division F of the International Astronomical Union by the
              Minor Planet Center, Smithsonian Astrophysical Observatory,
                              Cambridge, MA 02138, U.S.A.
    
                 Prepared using the Tamkin Foundation Computer Network
    
                                  MPC@CFA.HARVARD.EDU
                URL https://www.minorplanetcenter.net/    ISSN 1523-6714
    
                                     2019 MW                                 
    
    Observations:
         K19M00W* C2019 06 24.21545017 23 28.13 -08 11 02.6          20.30gUEM076I41
         K19M00W  C2019 06 24.26177017 23 29.85 -08 09 09.3          19.67rUEM076I41
         K19M00W  C2019 06 24.26220917 23 29.87 -08 09 08.3          19.68rUEM076I41
         K19M00W  C2019 06 24.26420017 23 29.93 -08 09 03.2          19.60rUEM076I41
         K19M00W  C2019 06 24.27037017 23 30.17 -08 08 48.1          19.64rUEM076I41
         K19M00W  C2019 06 24.27712017 23 30.41 -08 08 31.3          19.59rUEM076I41
         K19M00W  C2019 06 24.27948017 23 30.48 -08 08 25.6          19.70rUEM076I41
         K19M00W  C2019 06 24.28736017 23 30.79 -08 08 06.1          19.69rUEM076I41
         K19M00W  C2019 06 24.29674017 23 31.12 -08 07 43.0          19.62rUEM076I41
         K19M00W  C2019 06 24.30065017 23 31.26 -08 07 33.3          19.58rUEM076I41
         K19M00W  C2019 06 24.30353017 23 31.36 -08 07 26.3          19.37rUEM076I41
         K19M00W  C2019 06 24.31711017 23 31.85 -08 06 52.7          19.59rUEM076I41
         K19M00W  C2019 06 24.31756017 23 31.87 -08 06 51.6          19.54rUEM076I41
         K19M00W KC2019 06 24.88800 17 24 02.62 -07 43 19.7          19.6 RqEM076104
         K19M00W KC2019 06 24.89564 17 24 02.94 -07 43 00.4          19.5 RqEM076104
         K19M00W  C2019 06 24.90341317 24 03.14 -07 42 42.2          20.3 GVEM076L01
         K19M00W  C2019 06 24.90419617 24 03.15 -07 42 40.1          20.6 GVEM076L01
         K19M00W  C2019 06 24.90497917 24 03.20 -07 42 37.9          20.1 GVEM076L01
         K19M00W  C2019 06 24.90576217 24 03.17 -07 42 36.7          20.3 GVEM076L01
         K19M00W  C2019 06 24.90654517 24 03.27 -07 42 34.2          20.3 GVEM076L01
         K19M00W  C2019 06 24.90733917 24 03.29 -07 42 32.1          20.1 GVEM076L01
         K19M00W KC2019 06 24.91054 17 24 03.56 -07 42 23.3          19.5 RqEM076104
         K19M00W  C2019 06 25.17256 17 24 18.68 -07 31 20.3          19.5 GVEM076I52
         K19M00W  C2019 06 25.17511 17 24 18.77 -07 31 13.9          19.7 GVEM076I52
         K19M00W  C2019 06 25.17766 17 24 18.81 -07 31 08.0          19.9 GVEM076I52
         K19M00W  C2019 06 25.18021 17 24 18.95 -07 31 01.4          19.6 GVEM076I52
         K19M00W KC2019 06 25.25838817 24 21.18 -07 27 49.1          20.1 VuEM076H21
         K19M00W KC2019 06 25.26141217 24 21.30 -07 27 41.8          19.2 VuEM076H21
         K19M00W KC2019 06 25.26452417 24 21.43 -07 27 33.9          19.7 VuEM076H21
         K19M00W KC2019 06 25.27043217 24 21.67 -07 27 18.6          19.3 VuEM076H21
         K19M00W KC2019 06 25.87603 17 24 56.22 -07 01 50.2          20.1 RoEM076K88
         K19M00W KC2019 06 25.87641317 24 56.54 -07 01 47.4                VEM076K41
         K19M00W KC2019 06 25.87911217 24 56.66 -07 01 40.3                VEM076K41
         K19M00W KC2019 06 25.88110 17 24 56.46 -07 01 36.8          19.8 RoEM076K88
         K19M00W KC2019 06 25.88216217 24 56.89 -07 01 34.2          18.8 GVEM076K41
         K19M00W KC2019 06 25.88617 17 24 56.67 -07 01 24.2          19.6 RoEM076K88
         K19M00W KC2019 06 25.93389 17 24 59.11 -06 59 24.1          19.5 GVEM076K87
         K19M00W KC2019 06 25.93991 17 24 59.39 -06 59 09.2          19.9 GVEM076K87
         K19M00W KC2019 06 25.94592 17 24 59.67 -06 58 53.9          20.1 GVEM076K87
         K19M00W KC2019 06 25.96295 17 25 00.83 -06 58 03.7          20.0 GVEM076Z84
         K19M00W KC2019 06 25.98180 17 25 01.60 -06 57 15.7          20.3 GVEM076Z84
         K19M00W KC2019 06 25.98453 17 25 01.71 -06 57 13.0          20.1 VqEM076I93
         K19M00W KC2019 06 25.99122 17 25 02.01 -06 56 51.5          20.5 GVEM076Z84
         K19M00W KC2019 06 25.99549 17 25 02.11 -06 56 44.0          19.7 VqEM076I93
         K19M00W KC2019 06 25.99928 17 25 02.33 -06 56 35.2          19.5 VqEM076I93
         K19M00W KC2019 06 26.52049 17 25 32.87 -06 33 25.3          20.1 VqEM076E23
         K19M00W KC2019 06 26.53438 17 25 33.51 -06 32 48.4          20.3 VqEM076E23
    
    Observer details:
    104 San Marcello Pistoiese.  Observers P. Bacci, M. Maestripieri.  
        Measurers P. Bacci, L. Tesi, G. Fagioli.  0.60-m reflector + CCD.
    E23 Arcadia.  Observer A. Hidas.  0.35-m f/1.9 reflector + CCD.
    H21 Astronomical Research Observatory, Westfield.  Observer R. Holmes.  
        Measurers S. Foglia, L. Buzzi, T. Linder, R. Holmes.  
        0.61-m f/4.5 astrograph + CCD.
    I41 Palomar Mountain--ZTF.  Observers Q.-Z. Ye, Z. T. F. Collaboration.  
        Measurers F. J. Masci, Q.-Z. Ye.  1.2-m f/2.4 Schmidt.
    I52 Steward Observatory, Mt. Lemmon Station.  Observer R. A. Kowalski.  
        Measurers B. M. Africano, E. J. Christensen, G. A. Farneth, D. C. Fuls,
        A. R. Gibbs, A. D. Grauer, H. Groeller, R. A. Kowalski, S. M. Larson,
        G. J. Leonard, T. A. Pruyne, D. Rankin, R. L. Seaman, F. C. Shelly.  
        1.0-m reflector + CCD.
    I93 St Pardon de Conques.  Observer F. Losse.  0.40-m f/3.7 reflector + CCD.
    K41 Vegaquattro Astronomical Observatory, Novi Ligure.  Observer V. Luna.  
        0.3-m Schmidt-Cassegrain + CCD.
    K87 Dettelbach Vineyard Observatory.  Observer B. Haeusler.  
        0.30-m Schmidt-Cassegrain + CCD.
    K88 GINOP-KHK, Piszkesteto.  Observer K. Sarneczky.  0.60-m Schmidt + CCD.
    L01 Visnjan Observatory, Tican.  Observers K. Korlevic, P. Gural, D. Vida,
        G. Kervina, M. Katana.  Measurer K. Korlevic.  1.0-m f/2.9 reflector + CCD.
    Z84 Calar Alto-Schmidt.  Observer E. Schwab.  Measurers E. Schwab, D. Koschny,
        M. Micheli.  0.8-m f/3 Schmidt + CCD.
    
    Orbital elements:
    2019 MW                                                  Earth MOID = 0.1436 AU
    Epoch 2019 Apr. 27.0 TT = JDT 2458600.5                 MPC
    M 328.88661              (2000.0)            P               Q
    n   0.30948120     Peri.   65.20539     +0.65046257     +0.75337707
    a   2.1646110      Node   245.72315     -0.72950291     +0.58428014
    e   0.4825279      Incl.    6.07981     -0.21148036     +0.30172789
    P   3.18           H   22.1           G   0.15           U   8
    Residuals in seconds of arc
    190624 I41  0.0   0.3+    190624 L01  0.2-  0.0     190625 K41 (1.7-  0.6+)
    190624 I41  0.0   0.1-    190624 L01  0.0   0.3+    190625 K88  0.1+  0.7+
    190624 I41  0.1+  0.2-    190624 L01  0.9-  0.5-    190625 K41  0.3-  1.0-
    190624 I41  0.1-  0.0     190624 L01  0.1+  0.1+    190625 K88  0.1-  0.4+
    190624 I41  0.1+  0.1-    190624 L01  0.0   0.2+    190625 K87  0.2+  0.2-
    190624 I41  0.0   0.1+    190624 104  0.4+  0.4+    190625 K87  0.4+  0.6-
    190624 I41  0.2-  0.0     190625 I52  0.4+  0.1+    190625 K87  0.6+  0.6-
    190624 I41  0.2+  0.0     190625 I52  0.2+  0.1+    190625 Z84  0.0   0.1+
    190624 I41  0.0   0.0     190625 I52  0.8-  0.3-    190625 Z84  0.2-  0.1+
    190624 I41  0.0   0.0     190625 I52  0.3-  0.1-    190625 I93  0.7+  0.5-
    190624 I41  0.1-  0.1-    190625 H21  0.2+  0.1+    190625 Z84  0.0   0.2+
    190624 I41  0.1-  0.1-    190625 H21  0.2+  0.2-    190625 I93  0.4-  0.5+
    190624 I41  0.1-  0.1-    190625 H21  0.2+  0.2-    190625 I93  0.4+  0.4-
    190624 104  0.0   0.2+    190625 H21  0.2+  0.2+    190626 E23  0.9-  0.3-
    190624 104  0.1+  0.5+    190625 K88  0.2-  0.2+    190626 E23  0.2-  0.9+
    190624 L01  0.1+  0.1-    190625 K41 (1.7-  0.4+)
    
    Ephemeris:
    2019 MW                  a,e,i = 2.16, 0.48, 6                   q = 1.1201
    Date    TT    R. A. (2000) Decl.     Delta      r    Elong.  Phase     V
    2019 05 27    17 09 12.9 -21 46 27   0.3508  1.3571   166.9     9.7    21.1
    ...
    2019 06 11    17 15 21.1 -15 57 30   0.2625  1.2762   172.9     5.6    20.2
    ...
    2019 06 19    17 19 35.5 -11 33 20   0.2270  1.2378   166.4    11.1    20.0
    ...
    2019 06 25    17 24 07.9 -07 38 10   0.2052  1.2118   160.4    16.4    20.0
    2019 06 26    17 25 02.7 -06 56 03   0.2020  1.2077   159.4    17.3    19.9
    2019 06 27    17 26 00.7 -06 13 08   0.1989  1.2036   158.4    18.2    19.9
    ...
    2019 07 03    17 33 04.5 -01 40 53   0.1823  1.1812   152.3    23.6    19.9
    ...
    2019 07 11    17 46 44.5 +04 50 31   0.1659  1.1562   144.8    30.4    19.8
    ...
    2019 07 26    18 28 51.8 +16 59 03   0.1506  1.1264   134.5    40.0    19.8
    
    A. U. Tomatic                (C) Copyright 2019 MPC           M.P.E.C. 2019-M76
    


    Read MPEC 2019-M75 Read MPEC 2019-M77


    MPEC number:

    Enter an MPEC number in one of the following forms:

    • 1997-B01 (the full form)
    • J97B01 (the packed version of the full form)
    • B01 (the abbreviated form)